This demonstration page uses our WeatherBlox Daily Observations layout. Learn more.

Left ArrowRight Arrow

30.21309, -93.2044

Hourly Observations for August 27, 2022

Temp ( °F °C ) Dew Point ( °F °C ) Humidity (%) Winds ( mph kmh ) Pressure ( in mb ) Visibility ( mi km ) Precip ( " mm )
12:15 am 00:15 Clear 75 24 73 22.8 93 93 E 5 7 29.97 1015 10 16 0.00 0.00
12:35 am 00:35 Partly Cloudy 75 24 73 22.8 93 93 E 5 7 29.96 1015 10 16 0.00 0.00
12:55 am 00:55 Clear 75 23.8 73 22.6 93 93 ESE 3 6 29.96 1015 10 16 0.00 0.00
1:15 am 01:15 Clear 75 23.7 73 22.6 94 94 Calm 29.96 1015 10 16 0.00 0.00
1:35 am 01:35 Partly Cloudy 75 23.7 73 22.6 94 94 Calm 29.95 1014 10 16 0.00 0.00
1:55 am 01:55 Partly Cloudy 75 23.7 73 22.7 94 94 E 3 6 29.96 1015 10 16 0.00 0.00
2:15 am 02:15 Mostly Cloudy 75 23.9 73 22.9 94 94 ESE 3 6 29.95 1014 10 16 0.00 0.00
2:35 am 02:35 Mostly Cloudy 75 24 73 23 94 94 SE 3 6 29.95 1014 10 16 0.00 0.00
2:55 am 02:55 Partly Cloudy 75 23.9 73 23 95 95 SE 5 7 29.95 1014 10 16 0.00 0.00
3:15 am 03:15 Partly Cloudy 75 24.1 74 23.2 95 95 SE 6 9 29.95 1014 10 16 0.00 0.00
3:35 am 03:35 Mostly Cloudy 76 24.4 74 23.5 95 95 S 6 9 29.96 1015 10 16 0.00 0.00
3:55 am 03:55 Cloudy with Mist and Fog 77 24.8 74 23.5 93 93 S 7 11 29.95 1014 7 11 0.01 0.25
4:15 am 04:15 Cloudy with Rain 76 24.3 74 23.1 93 93 SSE 6 9 29.95 1014 3 5 0.09 2.29
4:35 am 04:35 Cloudy 75 24.1 73 23 94 94 SSE 7 11 29.95 1014 10 16 0.09 2.29
4:55 am 04:55 Partly Cloudy 75 23.9 73 22.7 93 93 Calm 29.95 1014 10 16 0.09 2.29
5:15 am 05:15 Partly Cloudy 75 24 73 22.7 92 92 Calm 29.94 1014 10 16 0.00 0.00
5:35 am 05:35 Partly Cloudy 75 23.8 73 22.6 93 93 Calm 29.95 1014 10 16 0.00 0.00
6:00 am 06:00 Mostly Clear 75 24 73 23 94 94 Calm 29.95 1014 10 16 0.00 0.00
6:51 am 06:51 Partly Cloudy 75 24 73 23 94 94 Calm 29.95 1014 10 16 0.00 0.00
7:53 am 07:53 Partly Cloudy 77 25 73 23 89 89 Calm 29.97 1015 10 16 0.00 0.00
8:58 am 08:58 Partly Cloudy 81 27 75 24 84 84 ESE 5 7 29.95 1014 10 16 0.00 0.00
9:51 am 09:51 Mostly Cloudy 82 28 75 24 79 79 SE 5 7 29.96 1014 10 16 0.00 0.00
10:50 am 10:50 Mostly Cloudy 84 29 75 24 74 74 Calm 29.95 1014 10 16 0.00 0.00
11:46 am 11:46 Mostly Cloudy with Rain 86 30 75 24 70 70 WNW 7 11 29.94 1014 6 10 0.00 0.00
12:45 pm 12:45 Partly Cloudy with Rain 84 29 72 22 66 66 Calm 29.93 1013 7 11 0.00 0.00
1:50 pm 13:50 Partly Cloudy with Rain 88 31 75 24 66 66 SE 6 9 29.90 1012 10 16 0.00 0.00
2:10 pm 14:10 Partly Cloudy with Rain 84 29 75 24 74 74 SSW 15 24 29.90 1012 1 2 0.00 0.00
2:50 pm 14:50 Partly Cloudy with Rain 81 27 75 24 84 84 SSW 15 24 29.89 1012 10 16 0.00 0.00
3:52 pm 15:52 Partly Cloudy 86 30 77 25 75 75 SSE 6 9 29.87 1011 10 16 0.00 0.00
4:55 pm 16:55 Partly Cloudy 88 31 73 23 63 63 SW 10 17 29.87 1011 10 16 0.00 0.00
5:47 pm 17:47 Partly Cloudy 86 30 75 24 70 70 SSW 12 19 29.86 1011 10 16 0.00 0.00
6:50 pm 18:50 Partly Cloudy 84 29 75 24 74 74 SW 6 9 29.86 1011 10 16 0.00 0.00
7:45 pm 19:45 Mostly Clear 82 28 73 23 74 74 S 7 11 29.86 1011 10 16 0.00 0.00
8:50 pm 20:50 Mostly Clear 79 26 75 24 89 89 S 6 9 29.88 1012 10 16 0.00 0.00
9:55 pm 21:55 Mostly Clear 79 26 75 24 89 89 Calm 29.88 1012 10 16 0.00 0.00
10:15 pm 22:15 Clear 78 25.6 76 24.3 93 93 SSE 3 6 29.89 1012 10 16 0.00 0.00
10:35 pm 22:35 Clear 78 25.5 75 24.1 92 92 S 3 6 29.89 1012 10 16 0.00 0.00
10:55 pm 22:55 Clear 78 25.5 75 24.1 92 92 S 3 6 29.89 1012 10 16 0.00 0.00
11:15 pm 23:15 Clear 78 25.3 75 23.9 92 92 E 3 6 29.89 1012 10 16 0.00 0.00
11:35 pm 23:35 Clear 78 25.3 75 24.1 93 93 E 5 7 29.89 1012 10 16 0.00 0.00
11:55 pm 23:55 Clear 77 25.2 75 24.1 94 94 SE 3 6 29.88 1012 10 16 0.00 0.00

Powered by AerisWeather